sat.trackr.live / text

‹ back to catalog

STARLINK-32799

NORAD 62847 · 2025-019U

PAYLOAD ACTIVE UNKNOWN

§ Identity

Operator
Country
US
Launch date
2025-01-27
Launch site
AFETR
Launch vehicle
Mass (kg)
RCS (m²)

Purposes: comms

External: N2YO · Heavens-Above · Gunter

§ Orbital elements

Epoch: 2026-09-21T03:14:00.493152Z

Period
94.27 min
Inclination
42.9865°
Eccentricity
0.0000591
Mean motion
15.27576605 rev/d
Perigee alt
482.7 km
Apogee alt
483.5 km
Semi-major
6,861.2 km
B*
2.4574e-4
RAAN
65.0462°
Arg perigee
344.4092°
Mean anomaly
15.6741°
Rev number
9,214

§ Raw data

STARLINK-327991 62847U 25019U   26264.13472793  .00006506  00000+0  24574-3 0  99912 62847  42.9865  65.0462 0000591 344.4092  15.6741 15.27576605 92141

JSON: /api/v1/satellites/62847 · /tle

For live sub-satellite position, see the globe view (requires WebGL).

§ Visibility from observer

Set your observer location to see the next 7 days of passes ≥ 10°. The values pass through the URL so the page stays shareable.

No JS? Fill the form by hand. The geolocation button needs JavaScript.